User: anonymous
Location: Unspecified
(0.0000°N, 0.0000°E)
Time: 01:03:10
(UTC+00:00)
Language:

CHIBIS-M - Orbit

View from above orbital plane
View from above orbital plane
View from above satellite
View from above satellite

Ground track
Ground track

The orbit data is extracted from the following two-line orbital elements,

1 38051U 11062C   14238.17341943  .00132947  00000-0  10428-2 0  8449
2 38051 051.6214 228.0281 0007399 081.2217 014.9651 15.70589633145070
Epoch (UTC): 26 August 2014 04:09:43
Eccentricity: 0.0007399
inclination: 51.6214°
perigee height: 352 km
apogee height: 362 km
right ascension of ascending node: 228.0281°
argument of perigee: 81.2217°
revolutions per day: 15.70589633
mean anomaly at epoch: 14.9651°
orbit number at epoch: 14507

The dashed part of the orbit path shows where the satellite is in the earth's shadow,  

DLR